Location: Caramacate
(10.0289°N, 66.7587°W)
Time: 21:44:43
(UTC+00:00)

USA 267 - Pass Details

Date: 05 August 2024
Orbit: 1096 x 1111 km, 123.1° (Epoch: 03 September)

Event Time Altitude Azimuth Distance (km) Brightness Sun altitude
Exits shadow 23:08:28 - 122° (ESE) 3,389 5.2 -5.5°
Reaches altitude 10° 23:09:42 10° 118° (ESE) 2,949 4.9 -5.8°
Maximum altitude 23:15:41 40° 51° (NE) 1,565 3.9 -7.2°
Drops below altitude 10° 23:21:40 10° 344° (NNW) 2,956 6.0 -8.6°
Sets 23:24:18 0° 337° (NNW) 3,916 6.8 -9.2°
